TimeEDT,TemperatureF,Dew PointF,Humidity,Sea Level PressureIn,VisibilityMPH,Wind Direction,Wind SpeedMPH,Gust SpeedMPH,PrecipitationIn,Events,Conditions,WindDirDegrees,DateUTC
12:56 AM,48.0,27.0,44,29.76,10.0,WSW,8.1,-,N/A,,Scattered Clouds,250,2012-10-31 04:56:00
1:56 AM,48.0,26.1,42,29.77,10.0,West,10.4,-,N/A,,Scattered Clouds,260,2012-10-31 05:56:00
2:56 AM,46.0,27.0,47,29.77,10.0,WSW,5.8,-,N/A,,Mostly Cloudy,250,2012-10-31 06:56:00
3:56 AM,44.1,27.0,51,29.77,10.0,WSW,6.9,-,N/A,,Mostly Cloudy,240,2012-10-31 07:56:00
4:56 AM,44.1,28.9,55,29.78,10.0,WSW,8.1,-,N/A,,Partly Cloudy,240,2012-10-31 08:56:00
5:56 AM,42.1,28.9,60,29.79,10.0,West,6.9,-,N/A,,Partly Cloudy,260,2012-10-31 09:56:00
6:56 AM,42.1,30.0,62,29.81,10.0,WSW,6.9,-,N/A,,Partly Cloudy,240,2012-10-31 10:56:00
7:56 AM,43.0,28.9,58,29.81,10.0,West,9.2,-,N/A,,Scattered Clouds,260,2012-10-31 11:56:00
8:56 AM,46.9,30.0,52,29.83,10.0,West,11.5,-,N/A,,Scattered Clouds,260,2012-10-31 12:56:00
9:56 AM,50.0,30.0,46,29.83,10.0,West,13.8,18.4,N/A,,Scattered Clouds,270,2012-10-31 13:56:00
10:56 AM,55.0,30.0,38,29.82,10.0,West,11.5,-,N/A,,Scattered Clouds,280,2012-10-31 14:56:00
11:56 AM,57.9,30.9,36,29.81,10.0,West,10.4,19.6,N/A,,Scattered Clouds,280,2012-10-31 15:56:00
12:56 PM,61.0,32.0,34,29.78,10.0,West,17.3,21.9,N/A,,Partly Cloudy,280,2012-10-31 16:56:00
1:56 PM,63.0,30.9,30,29.76,10.0,WNW,17.3,-,N/A,,Partly Cloudy,290,2012-10-31 17:56:00
2:56 PM,64.9,27.0,24,29.75,10.0,West,15.0,25.3,N/A,,Partly Cloudy,270,2012-10-31 18:56:00
3:56 PM,66.0,24.1,20,29.75,10.0,West,15.0,25.3,N/A,,Clear,260,2012-10-31 19:56:00
4:56 PM,66.0,19.0,17,29.74,10.0,West,12.7,21.9,N/A,,Clear,270,2012-10-31 20:56:00
5:56 PM,64.0,21.0,19,29.76,10.0,West,10.4,-,N/A,,Clear,260,2012-10-31 21:56:00
6:56 PM,57.0,26.1,30,29.78,10.0,WSW,6.9,-,N/A,,Partly Cloudy,240,2012-10-31 22:56:00
7:56 PM,54.0,28.0,37,29.81,10.0,WSW,5.8,-,N/A,,Clear,250,2012-10-31 23:56:00
8:56 PM,48.0,28.9,48,29.83,10.0,WSW,5.8,-,N/A,,Clear,240,2012-11-01 00:56:00
9:56 PM,51.1,28.0,41,29.83,10.0,SW,6.9,-,N/A,,Partly Cloudy,230,2012-11-01 01:56:00
10:56 PM,52.0,28.9,41,29.84,10.0,WSW,8.1,-,N/A,,Partly Cloudy,250,2012-11-01 02:56:00
11:56 PM,52.0,32.0,47,29.85,10.0,WSW,6.9,-,N/A,,Clear,250,2012-11-01 03:56:00